www.pogodaiklimat.ru
ПОГОДА в Тревизо аэропорту
Время
(UTC), дата
19 12.10
20 12.10
21 12.10
22 12.10
23 12.10
00 13.10
01 13.10
02 13.10
03 13.10
04 13.10
05 13.10
06 13.10
07 13.10
08 13.10
09 13.10
10 13.10
11 13.10
12 13.10
13 13.10
14 13.10
15 13.10
16 13.10
17 13.10
18 13.10
19 13.10
20 13.10
21 13.10
22 13.10
23 13.10
00 14.10
01 14.10
02 14.10
03 14.10
04 14.10
05 14.10
06 14.10
07 14.10
08 14.10
09 14.10
10 14.10
11 14.10
12 14.10
13 14.10
14 14.10
15 14.10
16 14.10
17 14.10
18 14.10
19 14.10
20 14.10
21 14.10
22 14.10
23 14.10
00 15.10
01 15.10
02 15.10
03 15.10
04 15.10
05 15.10
06 15.10
07 15.10
08 15.10
09 15.10
10 15.10
12 15.10
13 15.10
14 15.10
15 15.10
16 15.10
17 15.10
18 15.10
19 15.10
20 15.10
21 15.10
22 15.10
23 15.10
00 16.10
01 16.10
02 16.10
03 16.10
04 16.10
05 16.10
06 16.10
07 16.10
08 16.10
09 16.10
10 16.10
11 16.10
12 16.10
13 16.10
14 16.10
15 16.10
16 16.10
17 16.10
18 16.10
19 16.10
20 16.10
21 16.10
22 16.10
23 16.10
00 17.10
01 17.10
02 17.10
03 17.10
04 17.10
05 17.10
06 17.10
07 17.10
08 17.10
09 17.10
10 17.10
11 17.10
12 17.10
13 17.10
14 17.10
15 17.10
16 17.10
17 17.10
18 17.10
19 17.10
20 17.10
21 17.10
22 17.10
23 17.10
00 18.10
01 18.10
02 18.10
03 18.10
04 18.10
05 18.10
06 18.10
09 18.10
10 18.10
11 18.10
12 18.10
13 18.10
14 18.10
15 18.10
16 18.10
17 18.10
18 18.10
20 18.10
21 18.10
22 18.10
23 18.10
00 19.10
01 19.10
02 19.10
03 19.10
04 19.10
05 19.10
06 19.10
07 19.10
08 19.10
09 19.10
10 19.10
11 19.10
12 19.10
13 19.10
14 19.10
15 19.10
16 19.10
17 19.10
18 19.10
19 19.10
Ветер
(напр.,м/с)
Видим. Явления Облачность Т
(С)
Тd
(С)
f
(%)
Тe
(С)
Тes
(С)
Комфортность P
(гПа)
Po
(гПа)
Тmin
(С)
Tmax
(С)
R
(мм)
R24
(мм)
S
(см)
0 4000 м дымка 4/0
[Ci fib]
+16.0 +15.2 95 1023.5 1018.4
0 3000 м дымка 4/0
[Ci fib]
+14.2 +13.7 97 1023.6 1018.5
0 2500 м дымка ясно +13.6 +13.0 96 1023.7 1018.6
0 2000 м дымка ясно +13.4 +12.5 94 1023.6 1018.5
0 2000 м дымка ясно +13.4 +12.5 94 1023.6 1018.5
0 1200 м дымка ясно +12.4 +11.1 92 1023.6 1018.4
0 1200 м дымка ясно +12.0 +10.7 92 1023.7 1018.5
0 1200 м дымка ясно +12.0 +10.7 92 1023.7 1018.5
0 700 м туман ясно +12.0 +10.7 92 1023.6 1018.4
0 700 м туман ясно +11.0 +9.8 92 1023.7 1018.5
0 400 м туман ясно +11.0 +9.6 91 1024.2 1019.1
штиль 0 200 м туман ясно +10.2 +8.8 91 +9 +9 тепло 1023.5 1018.3 +10.2
З 1 1000 м в посл. час туман 5/3 150 м
[St Ci fib]
+10.8 +9.4 91 +11 +12 тепло 1023.8 1018.7
Ю 1 1500 м дымка {туман} 5/3 120 м
[St Ci fib]
+13.4 +11.8 90 +14 +16 тепло 1024.1 1019.0
В 1 1900 м дымка {туман} 9/1 180 м
[St Cs]
+16.4 +14.8 90 +17 +21 тепло 1024.0 1019.0
ЮВ 1 2600 м дымка 9/0
[Cs]
+18.8 +16.8 88 +22 +28 комфорт 1024.0 1019.0
В 1 3300 м дымка 9/1 300 м
[St Cs]
+20.2 +16.4 79 +25 +31 комфорт 1024.0 1019.0
Ю 2 3800 м дымка {туман} 9/1 300 м
[St Cs]
+21.2 +16.8 76 +25 +30 комфорт 1023.6 1018.6
ЮЗ 2 4000 м дымка 9/1 450 м
[Cu hum Cs]
+21.4 +17.0 76 +25 +29 комфорт 1023.2 1018.3
З 2 4300 м дымка 9/1 600 м
[Cu hum Cs]
+20.4 +16.2 77 +24 +27 комфорт 1023.3 1018.3
Ю 1 4200 м дымка 6/1 600 м
[Cu hum Ac trans]
+20.2 +16.3 78 +25 +26 комфорт 1023.1 1018.1
СЗ 1 4500 м дымка 9/5 1500 м
[Sc Ac trans]
+19.8 +16.7 82 +23 +23 комфорт 1023.0 1018.0
В 1 4500 м дымка 9/9 1500 м
[Sc]
+19.2 +16.1 82 +22 +22 комфорт 1023.1 1018.1
В 1 3500 м дымка 6/0
[Ac trans]
+18.8 +17.7 93 +22 +22 комфорт 1023.3 1018.3 +21.4
0 2800 м дымка 6/0
[Ac trans]
+17.0 +16.7 98 1022.3 1017.2
0 2500 м дымка 8/0
[Ci fib]
+16.8 +16.5 98 1023.1 1018.0
штиль 0 2000 м дымка 3/0
[Ac trans]
+16.0 +15.7 98 +16 +16 тепло 1023.5 1018.4
0 600 м дымка 5/5 90 м
[St]
+15.0 +14.7 98 1023.1 1018.0
0 <100 м туман 6/6 30 м
[St]
+14.0 +13.7 98 1023.4 1018.3
штиль 0 <100 м туман 4/4 30 м
[St]
+13.0 +12.7 98 +12 +12 тепло 1023.3 1018.2
0 100 м туман 8/8 30 м
[St]
+14.0 +13.4 96 1022.7 1017.6
0 <100 м туман 10/10 30 м
[St]
+14.0 +13.4 96 1023.1 1018.0
штиль 0 <100 м туман 10/10 30 м
[St]
+14.0 +13.7 98 +14 +14 тепло 1022.7 1017.6
0 <100 м туман 10/10 30 м
[St]
+14.4 +13.3 93 1022.4 1017.3
0 <100 м туман 10/10 30 м
[St]
+14.8 +14.0 95 1022.4 1017.3
штиль 0 <100 м туман ?/? +14.0 +13.2 95 +14 +14 тепло 1022.4 1017.3 +13.0
ЮВ 1 <100 м туман ?/? +14.0 +12.9 93 +15 +15 тепло 1022.7 1017.6
СВ 1 <100 м туман ?/? +14.6 +13.8 95 +15 +15 тепло 1022.7 1017.6
В 1 100 м туман ?/? +15.0 +13.4 90 +15 +15 тепло 1022.7 1017.6
0 300 м туман 10/10 30 м
[St]
+16.2 +14.7 91 1023.1 1018.0
0 1700 м в посл. час туман 8/5 150 м
[St Ci fib]
+17.4 +15.9 91 1023.0 1018.0
штиль 0 3000 м дымка {туман} 5/5 150 м
[St]
+20.0 +15.9 77 +22 +27 комфорт 1021.6 1016.6
Ю 1 3000 м дымка 6/4 600 м
[Cu hum Ci fib]
+20.0 +15.4 75 +23 +27 комфорт 1021.0 1016.0
0 3500 м дымка 9/5 1050 м
[Cu hum Ci sp]
+20.8 +16.6 77 1021.0 1016.1
штиль 0 2800 м дымка 6/3 450 м
[St Ci fib]
+20.0 +16.4 80 +22 +24 комфорт 1020.0 1015.1
ЮВ 1 2600 м дымка 6/3 450 м
[St Ci fib]
+19.0 +17.3 90 +22 +22 комфорт 1019.9 1014.9
0 1400 м дымка 5/5 300 м
[St]
+18.0 +15.8 87 1019.8 1014.8
штиль 0 1400 м дымка 5/5 300 м
[St]
+18.0 +16.9 93 +18 +18 тепло 1019.7 1014.7 +21.0
СЗ 1 2000 м дымка 5/5 1500 м
[Sc]
+18.8 +18.0 95 +22 +22 комфорт 1020.3 1015.3
С 1 1900 м местами туман поземный ясно +17.6 +17.3 98 +19 +19 тепло 1020.2 1015.2
СЗ 1 1800 м местами туман поземный 5/5 1500 м
[Sc]
+16.2 +15.6 96 +18 +18 тепло 1020.2 1015.2
С 1 1800 м дымка 8/5 1500 м
[Sc Ac trans]
+16.4 +15.3 93 +18 +18 тепло 1020.2 1015.1
СЗ 1 1700 м дымка 8/4 1200 м
[Sc Ac trans]
+16.2 +15.2 94 +18 +18 тепло 1019.8 1014.8
С 1 1600 м дымка 8/5 1350 м
[Sc Ac trans]
+16.4 +15.3 93 +18 +18 тепло 1019.4 1014.4
С 2 1500 м дымка 8/5 1500 м
[Sc Ac trans]
+16.0 +15.0 94 +16 +16 тепло 1018.8 1013.8
СВ 1 1800 м дымка 8/8 1200 м
[Sc]
+16.2 +14.7 91 +18 +18 тепло 1018.3 1013.3
СВ 1 1800 м дымка 6/5 1200 м
[Sc Ac trans]
+16.8 +15.5 92 +18 +18 тепло 1017.8 1012.8
СВ 1 1800 м дымка 8/8 900 м
[Sc]
+16.8 +15.5 92 +18 +18 тепло 1017.6 1012.6
СВ 2 1900 м дымка 9/9 900 м
[Sc]
+16.6 +15.3 92 +17 +17 тепло 1017.2 1012.2
СВ 3 1800 м дымка 10/10 450 м
[Sc]
+16.8 +15.5 92 +17 +17 тепло 1017.2 1012.2 +15.6
С 3 1400 м дымка 10/10 300 м
[St]
+16.6 +15.5 93 +16 +16 тепло 1017.0 1012.0
С 4 1400 м дымка 10/10 300 м
[St]
+16.6 +15.5 93 +16 +16 тепло 1017.6 1012.5
С 3 1200 м слаб. дождь 10/10 300 м
[Frnb]
+16.8 +15.5 92 +17 +17 тепло 1017.2 1012.2
С 3 1000 м в посл. час дождь 10/10 300 м
[Frnb]
+16.8 +15.3 91 +17 +17 тепло 1017.2 1012.2
С 3 1600 м дымка 10/10 360 м
[St]
+17.6 +16.3 92 +18 +18 тепло 1016.1 1011.1
С 5 2500 м дымка 10/10 360 м
[St]
+17.8 +16.3 91 +17 +17 тепло 1015.3 1010.3
С 5 2500 м дымка 10/10 330 м
[St]
+17.8 +16.3 91 +17 +17 тепло 1014.2 1009.2
С 5 3000 м дымка 10/10 300 м
[St]
+17.8 +16.3 91 +17 +17 тепло 1013.9 1008.9
С 6 3000 м дымка 10/10 300 м
[St]
+17.4 +16.1 92 +17 +17 тепло 1013.4 1008.4
СВ 5 3000 м дымка 10/10 300 м
[St]
+17.4 +16.1 92 +17 +17 тепло 1012.5 1007.5
СВ 4 4000 м слаб. дождь 10/10 300 м
[Frnb]
+17.2 +15.9 92 +17 +17 тепло 1012.4 1007.4 +18.2 0.6
СВ 5 3000 м слаб. дождь 10/10 300 м
[Frnb]
+17.0 +15.4 90 +16 +16 тепло 1011.3 1006.3
СЗ 5 1600 м слаб. дождь 10/10 300 м
[Frnb]
+16.0 +14.4 90 +15 +15 тепло 1011.3 1006.3
В 1 3000 м слаб. дождь 10/4 450 м
[Sc Ac trans]
+16.0 +14.4 90 +17 +17 тепло 1010.7 1005.7
0 5000 м в посл. час дождь 8/8 900 м
[Sc]
+16.0 +14.4 90 1010.7 1005.7
С 2 6000 м дымка 8/4 450 м
[Sc Ac trans]
+15.0 +13.7 92 +15 +15 тепло 1009.7 1004.7
З 1 7000 м {дождь} 6/1 450 м
[St Ac trans]
+15.0 +13.4 90 +15 +15 тепло 1011.0 1005.9 12
ЮЗ 2 7000 м дымка 5/0
[Ac trans]
+15.0 +13.4 90 +15 +15 тепло 1011.2 1006.2
ЮЗ 1 4000 м местами туман поземный 3/3 150 м
[St]
+15.0 +13.4 90 +15 +15 тепло 1011.9 1006.9
штиль 0 <100 м туман 9/9 90 м
[St]
+15.4 +14.1 92 +15 +15 тепло 1011.7 1006.6
0 <100 м туман ?/? +15.2 +13.9 92 1012.2 1007.2
СЗ 2 <100 м туман 10/10 30 м
[St]
+14.0 +12.4 90 +14 +14 тепло 1012.2 1007.1
штиль 0 <100 м туман 9/9 30 м
[St]
+13.0 +11.6 91 +12 +12 тепло 1012.4 1007.3 +13.0 12
0 400 м туман 5/5 30 м
[St]
+13.0 +11.4 90 1014.3 1009.3
З 2 100 м туман 6/6 30 м
[St]
+15.4 +13.8 90 +15 +16 тепло 1014.6 1009.6
ЮЗ 2 6000 м дымка {туман} 4/4 150 м
[St]
+16.6 +15.0 90 +17 +20 тепло 1015.3 1010.3
0 12 км 1/1 150 м
[St]
+19.0 +16.8 87 1015.9 1010.9
Ю 2 10 км 4/4 300 м
[Cu hum]
+19.6 +17.2 86 +23 +27 комфорт 1015.7 1010.7
ЮВ 3 12 км {туман} 4/4 450 м
[Cu hum]
+20.6 +17.8 84 +25 +28 комфорт 1015.6 1010.6
ЮВ 2 12 км 4/4 900 м
[Cu hum]
+20.0 +17.6 86 +24 +27 комфорт 1015.3 1010.4
ЮВ 2 12 км 5/3 900 м
[Cu hum Ac trans]
+20.2 +17.4 84 +24 +26 комфорт 1015.7 1010.7
0 12 км ясно +20.0 +17.2 84 1015.6 1010.7
0 10 км ясно +19.6 +17.6 88 1015.8 1010.9
0 10 км ясно +17.4 +17.1 98 1016.6 1011.6
СВ 2 10 км ясно +16.4 +16.1 98 +17 +17 тепло 1017.0 1012.0 +21.2
0 7000 м дымка ясно +15.0 +14.2 95 1016.9 1011.9
0 7000 м дымка ясно +15.0 +13.7 92 1016.9 1011.9
С 1 8000 м дымка ясно +15.0 +13.7 92 +15 +15 тепло 1017.2 1012.2
С 2 10 км ясно +14.8 +13.4 91 +15 +15 тепло 1018.0 1013.0
С 2 7000 м дымка 5/5 750 м
[Sc]
+14.6 +13.5 93 +14 +14 тепло 1018.0 1013.0
ЮВ 1 4000 м дымка ясно +14.6 +13.5 93 +15 +15 тепло 1018.3 1013.2
0 2500 м дымка ясно +14.6 +13.8 95 1018.2 1013.2
С 1 800 м туман ясно +12.4 +11.6 95 +12 +12 тепло 1018.1 1013.1
0 800 м туман ясно +12.4 +11.6 95 1017.5 1012.4
0 800 м туман 5/5 300 м
[St]
+12.4 +11.6 95 1017.5 1012.4
С 1 700 м туман 5/5 300 м
[St]
+12.4 +11.6 95 +12 +12 тепло 1016.4 1011.4
штиль 0 900 м туман 5/5 300 м
[St]
+13.4 +12.6 95 +13 +13 тепло 1018.5 1013.4 +11.4
0 6000 м дымка 3/0
[Ci fib]
+12.2 +10.9 92 1019.4 1014.3
СВ 2 8000 м дымка 1/0
[Ci fib]
+15.4 +13.8 90 +15 +18 тепло 1019.7 1014.7
0 10 км 3/1 450 м
[Cu hum Ci fib]
+16.8 +15.0 89 1019.6 1014.6
0 10 км 4/4 450 м
[Cu hum]
+18.6 +16.0 85 1019.5 1014.5
Ю 2 10 км 4/4 450 м
[Cu hum]
+19.6 +16.1 80 +22 +27 комфорт 1019.2 1014.3
В 2 11 км {туман} 3/3 450 м
[Cu hum]
+21.0 +15.8 72 +25 +29 комфорт 1018.8 1013.9
Ю 1 10 км 5/5 450 м
[Cu hum]
+21.2 +16.4 74 +25 +27 комфорт 1019.4 1014.5
0 12 км 4/4 600 м
[Cu med, cong]
+20.4 +15.2 72 1018.2 1013.3
Ю 2 11 км 3/3 600 м
[Cu hum]
+20.0 +15.4 75 +23 +24 комфорт 1018.1 1013.2
0 10 км 8/8 450 м
[Cu hum]
+19.0 +16.2 84 1018.1 1013.2
ЮВ 1 10 км 3/3 600 м
[Cu hum]
+18.6 +17.1 91 +21 +21 комфорт 1018.1 1013.2
штиль 0 7000 м дымка 3/3 750 м
[Cu hum]
+17.0 +16.2 95 +17 +17 тепло 1018.5 1013.5 +21.4
0 4000 м дымка ясно +15.0 +14.0 94 1018.5 1013.4
0 1400 м дымка ясно +14.2 +13.1 93 1018.7 1013.7
штиль 0 3000 м дымка 5/0 2000 м
[Ac trans]
+14.0 +12.4 90 +14 +14 тепло 1018.6 1013.6
0 2400 м дымка 6/0
[Ac trans]
+14.0 +12.6 91 1018.6 1013.6
0 3000 м дымка 6/0
[Ac trans]
+14.0 +12.4 90 1018.5 1013.5
штиль 0 3000 м дымка 8/0 2000 м
[Ac trans]
+14.6 +13.0 90 +14 +14 тепло 1018.2 1013.2
0 3000 м дымка 8/0
[Ac trans]
+14.8 +13.2 90 1018.1 1013.1
0 3000 м дымка 8/0
[Ac trans]
+14.8 +13.2 90 1018.1 1013.1
штиль 0 3500 м дымка 8/0 2000 м
[Ac trans]
+14.8 +13.2 90 +14 +14 тепло 1017.5 1012.5
0 3500 м дымка 9/3 60 м
[St Ac trans]
+15.0 +13.4 90 1017.5 1012.5
СВ 3 3500 м дымка 10/4 60 м
[St Ac trans]
+14.8 +13.2 90 +14 +14 тепло 1017.4 1012.4
СВ 2 1800 м дымка 9/4 90 м
[St Ac trans]
+14.8 +13.2 90 +14 +14 тепло 1017.4 1012.4 +13.8
СВ 2 2700 м дымка 10/6 180 м
[St As trans]
+16.6 +15.0 90 +17 +18 тепло 1018.1 1013.0
В 1 2800 м дымка 10/9 180 м
[St As trans]
+17.4 +15.6 89 +19 +19 тепло 1018.2 1013.2
ЮВ 1 3000 м дымка 9/8 300 м
[Cu Sc As trans]
+18.4 +16.4 88 +21 +22 комфорт 1018.0 1013.0
Ю 1 3600 м дымка 9/4 540 м
[Cu hum Ac trans]
+19.4 +16.8 85 +23 +25 комфорт 1017.4 1012.5
Ю 2 4000 м дымка 8/5 540 м
[Cu med, cong Ac trans]
+20.4 +17.6 84 +25 +26 комфорт 1017.3 1012.3
Ю 1 4300 м дымка 9/3 570 м
[Cu med, cong Ac trans]
+20.2 +17.6 85 +24 +26 комфорт 1017.0 1012.0
Ю 2 4500 м дымка 9/3 600 м
[Sc Ac trans Cs]
+19.8 +17.2 85 +23 +24 комфорт 1016.8 1011.9
Ю 1 4500 м дымка 9/1 750 м
[Sc Ac trans Cs]
+19.0 +17.5 91 +22 +22 комфорт 1016.8 1011.8
0 4500 м дымка 9/1 900 м
[Sc Ac und Cs]
+17.6 +16.8 95 1016.8 1011.8
штиль 0 4500 м дымка 9/1 1200 м
[Sc Ac trans Ci fib]
+17.2 +16.2 94 +17 +17 тепло 1017.0 1012.0 +20.4
0 3000 м дымка 8/0
[Ac trans]
+17.0 +15.9 93 1017.0 1012.0
штиль 0 3000 м дымка 8/0 2000 м
[Ac trans]
+16.0 +14.9 93 +16 +16 тепло 1017.1 1012.0
СВ 1 3500 м дымка 9/0
[Ac trans]
+15.0 +13.7 92 +15 +15 тепло 1017.1 1012.0
СВ 1 4000 м дымка 9/4 1200 м
[Sc As trans]
+15.0 +13.4 90 +15 +15 тепло 1017.1 1012.0
С 2 4500 м дымка 6/6 1200 м
[Sc]
+15.0 +13.4 90 +15 +15 тепло 1017.9 1012.8
0 4000 м дымка 10/5 1200 м
[Sc Ac trans]
+15.0 +13.4 90 1017.2 1012.1
0 3500 м дымка 10/10 1200 м
[Sc]
+15.0 +13.4 90 1017.1 1012.0
С 2 3500 м дымка 10/0
[Ac trans]
+15.0 +12.5 85 +15 +15 тепло 1016.6 1011.5
С 3 3000 м дымка 10/0
[Ac trans]
+15.0 +13.0 88 +14 +14 тепло 1016.6 1011.5
С 2 2000 м дымка 10/0
[Ac trans]
+15.4 +13.8 90 +15 +15 тепло 1016.4 1011.4
СВ 3 1300 м дымка 8/0
[Ac trans]
+16.0 +14.7 92 +16 +16 тепло 1016.7 1011.6 +15.0
СВ 4 1600 м дымка 8/3 300 м
[St Ac trans]
+15.6 +14.0 90 +15 +15 тепло 1016.3 1011.3
СВ 3 2000 м дымка 9/9 450 м
[St]
+16.6 +15.0 90 +16 +16 тепло 1016.4 1011.4
В 4 2500 м дымка 10/10 450 м
[St]
+16.6 +15.0 90 +16 +16 тепло 1016.5 1011.5
СВ 4 4000 м дымка 8/4 750 м
[Cu med, cong Ac trans]
+18.0 +16.3 90 +18 +19 тепло 1016.5 1011.5
В 3 6000 м дымка 8/3 450 м
[Sc Ac trans]
+20.4 +18.0 86 +24 +26 комфорт 1016.4 1011.5
СВ 3 7000 м дымка 6/0 2000 м
[Ac trans]
+20.6 +18.7 89 +25 +28 комфорт 1016.1 1011.2
С 2 7000 м дымка 9/0
[Ac trans]
+20.2 +18.5 90 +24 +27 комфорт 1016.1 1011.2
С 3 6000 м дымка 8/0
[Ac trans]
+20.0 +18.1 89 +23 +25 комфорт 1016.1 1011.2
С 3 6000 м дымка 8/0 2000 м
[Ac trans]
+19.0 +18.0 94 +21 +21 комфорт 1016.2 1011.2
С 1 4500 м дымка 9/4 750 м
[Sc Ac trans]
+18.4 +16.7 90 +20 +20 тепло 1016.0 1011.1
В 2 4000 м дымка 8/8 1500 м
[Cu med, cong]
+18.0 +16.3 90 +19 +19 тепло 1015.9 1011.0
СВ 2 3000 м дымка 9/9 1500 м
[Sc]
+19.0 +17.3 90 +21 +21 комфорт 1016.6 1011.7 +20.6
С 2 4500 м дымка 8/8 1200 м
[Sc]
+18.4 +17.6 95 +20 +20 тепло 1016.8 1011.8
Местоположение метеостанции Тревизо аэропорт (Италия): широта 45.68 долгота 12.10 высота над уровнем моря 46 м.
В архиве по умолчанию представлена погода в Тревизо аэропорту за последнюю неделю. Архивные данные за месяц целиком и за предыдущие месяцы, начиная с января 2011 года, Вы можете получить, выбрав интересующий диапазон дат из раскрывающегося списка и нажав кнопку "Найти!".
*Определитесь, кто Вы:
Внимание! Время в таблицах - всемирное. Для получения местного времени необходимо прибавить поправку, которая равна 1 ч.
Смотрите также архив погоды в соседних городах и на ближайших метеорологических станциях:
Партнеры нашего сайта:      
Пояснения к столбцам:
  • Ветер - указаны скорость ветра в м/с - средняя за 10 мин, порывы в срок и между сроками (в фигурных скобках) и направление, откуда дует ветер: С - северный,
  • СВ - северо-восточный, В - восточный, ЮВ - юго-восточный, Ю - южный, ЮЗ - юго-западный, З - западный, СЗ - северо-западный.
  • Видимость - горизонтальная дальность видимости в метрах или километрах. При видимости от 1 до 10 км при отсутствии осадков обычно наблюдается дымка, при ухудшении видимости до 1 км и менее - туман. В сухую погоду видимость может ухудшаться дымом, пылью или мглою.
  • Явления - указаны атмосферные явления, наблюдавшиеся в срок или в последний час перед сроком; фигурными скобками обозначены явления, наблюдавшиеся между сроками (за 1-3 часа до срока); квадратными скобками обозначены град или гололедные отложения с указанием их диаметра в мм.
  • Облачность - указаны через наклонную черту общая и нижняя облачность в баллах и высота нижней границы облаков в метрах; квадратными скобками обозначены формы облаков: Ci - перистые, Cs - перисто-слоистые, Cc - перисто-кучевые, Ac - высококучевые, As - высокослоистые, Sc - слоисто-кучевые, Ns - слоисто-дождевые, Cu - кучевые, Cb - кучево-дождевые. Подробнее классификацию облаков см. в Атласе облаков (PDF).
  • T - Температура воздуха - температура, измеренная на высоте 2 м над землей.
  • Td - Температура точки росы - температура, при понижении до которой содержащийся в воздухе водяной пар достигнет насыщения.
  • f - Относительная влажность воздуха - влажноcть воздуха, измеренная на высоте 2 м над землей.
  • Te - Эффективная температура - температура, которую ощущает одетый по сезону человек в тени. Характеристика душности погоды. При расчете учитывается влияние влажности воздуха и скорости ветра на теплоощущения человека.
  • Tes - Эффективная температура на солнце - температура, которую ощущает человек, с поправкой на солнечный нагрев. Характеристика знойности погоды. Зависит от высоты солнца над горизонтом, облачности и скорости ветра. Ночью, в пасмурную погоду, а также при ветре 12 м/с и более поправка равна нулю.
  • P - Атмосферное давление - приведенное к уровню моря атмосферное давление.
  • Po - Атмосферное давление - измеренное на уровне метеостанции атмосферное давление.
  • Tmin - Минимальная температура - минимум температуры воздуха на высоте 2 м над землей.
  • Tmax - Максимальная температура - максимум температуры воздуха на высоте 2 м над землей.
  • R - Количество осадков - Количество выпавших осадков за период времени, мм. При наведении курсора мыши на число - период времени, за который выпало указанное количество осадков.
  • R24 - Количество осадков - Количество выпавших осадков за 24 часа, мм.
  • S - Снежный покров - Высота снежного покрова, см. При наведении курсора мыши на число - состояние снежного покрова и степень покрытия местности в баллах.